Tracking 30923 objects as of 1-Jul-2025
HD Live streaming from Space Station
objects crossing your sky now

DELTA 1 DEB

Track DELTA 1 DEB now!
10-day predictions


NORAD ID: 7166
Int'l Code: 1973-086EE
Perigee: 1,497.7 km
Apogee: 1,517.8 km
Inclination: 102.2 °
Period: 116.0 minutes
Semi major axis: 7878 km
RCS: 0.0457 m2 (small)
Launch date: November 6, 1973
Source: United States (US)
Launch site: AIR FORCE WESTERN TEST RANGE (AFWTR)

Note: This is SATELLITE DEBRIS
Your satellite tracking list
USA 119
Track 1 satellite(s)




NASA's NSSDC Master Catalog

Two Line Element Set (TLE):
1  7166U 73086EE  25180.63051039  .00000022  00000-0  49979-3 0  9992
2  7166 102.2287 179.1748 0012757 188.0680 288.3500 12.41414159337049
Source of the keplerian elements: AFSPC